sat.trackr.live / text

‹ back to catalog

STARLINK-4174

NORAD 53276 · 2022-086AL

PAYLOAD ACTIVE UNKNOWN

§ Identity

Operator
Country
US
Launch date
2022-07-24
Launch site
AFETR
Launch vehicle
Mass (kg)
RCS (m²)

Purposes: comms

External: N2YO · Heavens-Above · Gunter

§ Orbital elements

Epoch: 2026-05-25T03:22:23.640960Z

Period
95.44 min
Inclination
53.2150°
Eccentricity
0.0001333
Mean motion
15.08837655 rev/d
Perigee alt
538.8 km
Apogee alt
540.7 km
Semi-major
6,917.9 km
B*
-1.1102e-5
RAAN
200.9190°
Arg perigee
89.7779°
Mean anomaly
270.3366°
Rev number
21,273

§ Raw data

STARLINK-41741 53276U 22086AL  26145.14055140 -.00000465  00000+0 -11102-4 0  99942 53276  53.2150 200.9190 0001333  89.7779 270.3366 15.08837655212739

JSON: /api/v1/satellites/53276 · /tle

For live sub-satellite position, see the globe view (requires WebGL).

§ Visibility from observer

Set your observer location to see the next 7 days of passes ≥ 10°. The values pass through the URL so the page stays shareable.

No JS? Fill the form by hand. The geolocation button needs JavaScript.